Regional Weather Roundup
Issued by NWS Green Bay, WI

Home | Current Version | Previous Version | Text Only | Print | Product List | Glossary On
Versions: 1 2 3 4 5 6 7 8 9 10 11 12 13 14 15 16 17 18 19 20 21 22 23 24 25 26 27 28 29 30 31 32 33 34 35 36 37 38 39 40 41 42 43 44 45 46 47 48 49 50
720
ASUS43 KGRB 302111
RWRGRB

NORTH-CENTRAL AND NORTHEAST WISCONSIN REGIONAL WEATHER ROUNDUP
NATIONAL WEATHER SERVICE GREEN BAY WI
400 PM CDT SUN APR 30 2017

WIZ005-009-010>012-018-019-302200-
NORTH CENTRAL WISCONSIN

CITY           SKY/WX    TMP DP  RH WIND       PRES   REMARKS
IRONWOOD       CLOUDY    42  27  55 NE10G21   30.00F
MANITOWISH WTR CLOUDY    48  27  43 NE10G16   29.94S
ARBOR VITAE    CLOUDY    52  24  34 E8        29.92F
EAGLE RIVER    CLOUDY    50  19  29 E10       29.93F
LAND O LAKES   CLOUDY    51  19  28 NE10G16   29.95F
RHINELANDER    CLOUDY    48  31  51 E14       29.93F
PHILLIPS       CLOUDY    50  27  41 E13       29.91F
ANTIGO         CLOUDY    41  35  79 E17G25    29.93S
TOMAHAWK       CLOUDY    46  32  57 E10       29.93R
MERRILL        CLOUDY    46  35  63 E10G22    29.92S
$$

WIZ013-073-302200-
NORTHEAST WISCONSIN

CITY           SKY/WX    TMP DP  RH WIND       PRES   REMARKS
IRON MOUNTAIN  CLOUDY    47  32  56 E10G17    29.96F
MARINETTE      LGT RAIN  38  36  92 E18G29    29.98  FOG
OCONTO         CLOUDY    38  35  92 NE16G24   29.95F
$$

WIZ017-030-035>037-045-302200-
CENTRAL WISCONSIN

CITY           SKY/WX    TMP DP  RH WIND       PRES   REMARKS
MEDFORD        CLOUDY    46  34  63 E16       29.89S
WAUSAU         CLOUDY    43  36  76 E14       29.91R
MOSINEE        CLOUDY    43  37  81 NE13      29.92R
MARSHFIELD     CLOUDY    44  36  73 NE16G23   29.87F
WISC RAPIDS    CLOUDY    42  37  82 E15       29.90F
STEVENS POINT  CLOUDY    39  35  85 E10G22    29.91F
WAUPACA        CLOUDY    42  37  82 NE14G21   29.91F
SHAWANO        CLOUDY    41  37  86 E17       29.94F
CLINTONVILLE   CLOUDY    37  34  87 E12       29.94S
WAUTOMA        CLOUDY    41  37  86 E13       29.89F
$$

WIZ038-039-048-051-302200-
FOX VALLEY

CITY           SKY/WX    TMP DP  RH WIND       PRES   REMARKS
NWS GREEN BAY  CLOUDY    40  38  93 NE18G30   29.92F
APPLETON       CLOUDY    39  37  93 NE21G28   29.88F
OSHKOSH        CLOUDY    41  37  86 NE16G23   29.88F
FOND DU LAC    CLOUDY    41  37  86 NE13      29.88F
$$

WIZ022-050-052-302200-
EAST CENTRAL WISCONSIN

CITY           SKY/WX    TMP DP  RH WIND       PRES   REMARKS
EPHRAIM        CLOUDY    35  35 100 E17G24    29.96F FOG
WASHINGTON ISL MIX PCPN  36  34  94 E13G26    29.99F
STURGEON BAY   CLOUDY    37  35  92 NE15G24   29.95F
MANITOWOC      CLOUDY    39  37  92 NE16G24   29.90F
SHEBOYGAN      CLOUDY    40  38  93 NE20G31   29.88F
$$

LMZ563-521-522-541>543-302200-
LAKESHORE

STATION/POSITION TIME  TEMP    WIND        PRES    VSBY  WAVE
                       AIR SEA DIR/SP/G                  HT/PER
                 (UTC) (F)     (DEG/KT/KT) (MB)    (MI)  (FT/S)
SHEBOYGAN LKSHOR 2100   39      30/ 23/ 26 1012.0F
KEWAUNEE LKSHORE 2042   38      40/ 21/ 28 1013.2F
NORTHPORT PIER   2030   37      60/ 21/ 26 1016.3S
N MID LAKE BUOY  2050   36 37   70/ 23/ 27 1016.4F         5/ 6
CHAMBERS ISLAND  2030   37      40/ 12/ 20 1015.2F
MENOMINEE LKSHOR 2042   38      40/ 20/ 22 1014.3F
$$




USA.gov is the U.S. government's official web portal to all federal, state and local government web resources and services.